Location: Unspecified
(20.0000°S, 0.0000°E)
Time: 22:19:17
(UTC+00:00)

Envisat - Visible Passes

Search period start: 19 May 2019 00:00
Search period end: 29 May 2019 00:00
Orbit: 764 x 766 km, 98.2° (Epoch: 19 May)

Date Brightness Start Highest point End Pass type
(mag) Time Alt. Az. Time Alt. Az. Time Alt. Az.
19 May 2.9 19:11:46 32° S 19:14:11 87° W 19:19:16 10° NNW visible
20 May 3.6 18:34:37 20° SE 18:37:27 35° E 18:42:02 10° NNE visible
20 May 5.5 20:14:49 15° SW 20:16:06 17° WSW 20:19:14 10° WNW visible
21 May 5.8 05:37:54 10° ENE 05:40:39 15° ESE 05:43:26 10° SE visible
21 May 4.7 17:58:23 10° ESE 18:00:35 13° E 18:02:48 10° ENE visible
21 May 4.0 19:37:39 30° SSW 19:39:37 43° WSW 19:44:23 10° NW visible
22 May 2.9 19:00:30 31° SSE 19:02:58 71° ENE 19:08:01 10° N visible
23 May 5.1 06:01:38 10° NE 06:05:58 29° ESE 06:10:20 10° SSE visible
23 May 4.0 18:23:20 16° SE 18:26:12 26° E 18:30:23 10° NNE visible
23 May 5.1 20:03:32 20° SW 20:04:57 22° WSW 20:08:48 10° WNW visible
24 May 6.0 05:28:21 10° E 05:29:33 11° ESE 05:30:44 10° SE visible
24 May 3.5 19:26:21 34° SSW 19:28:25 58° WSW 19:33:24 10° NNW visible
25 May 3.1 18:49:11 27° SE 18:51:45 52° E 18:56:40 10° N visible
25 May 5.9 20:29:23 10° WSW 20:30:14 11° WSW 20:31:26 10° W visible
26 May 5.5 05:50:58 10° ENE 05:54:48 22° ESE 05:58:40 10° SSE visible
26 May 4.3 18:12:00 13° ESE 18:14:56 20° E 18:18:33 10° NE visible
26 May 4.7 19:52:12 24° SW 19:53:49 29° WSW 19:58:08 10° NW visible
27 May 3.0 19:15:02 35° S 19:17:14 78° WSW 19:22:18 10° NNW visible
28 May 3.5 18:37:50 22° SE 18:40:30 39° E 18:45:13 10° NNE visible
28 May 5.6 20:18:02 14° WSW 20:19:07 15° WSW 20:21:53 10° WNW visible
